Location: Frizzleburg
(41.0764°N, 80.4548°W)
Time: 07:15:30
(UTC+00:00)

COSMO-SKYMED 1 - Pass Details

Date: 17 November 2019
Orbit: 621 x 623 km, 97.9° (Epoch: 16 December)

Event Time Altitude Azimuth Distance (km) Brightness Sun altitude
Rises 11:39:12 0° 205° (SSW) 2,890 5.9 -6.5°
Reaches altitude 10° 11:42:00 10° 224° (SW) 1,989 4.9 -6.0°
Maximum altitude 11:44:56 18° 267° (W) 1,549 4.1 -5.5°
Drops below altitude 10° 11:47:53 10° 310° (NW) 2,000 4.6 -5.0°
Sets 11:50:44 0° 330° (NNW) 2,912 5.5 -4.5°
